Time,TemperatureF,DewpointF,PressureIn,WindDirection,WindDirectionDegrees,WindSpeedMPH,WindSpeedGustMPH,Humidity,HourlyPrecipIn,Conditions,Clouds,dailyrainin,SoftwareType,DateUTC
2013-03-21 00:02:00,25.0,10.0,-100.00,ENE,75,30.0,35.0,51,-99.99,,,-99.99,,2013-03-21 06:02:00,
2013-03-21 00:12:00,24.0,10.0,-100.00,East,80,30.0,35.0,54,-99.99,,,-99.99,,2013-03-21 06:12:00,
2013-03-21 00:22:00,24.0,10.0,-100.00,East,80,30.0,35.0,54,-99.99,,,-99.99,,2013-03-21 06:22:00,
2013-03-21 00:32:00,24.0,10.0,-100.00,East,85,30.0,35.0,54,-99.99,,,-99.99,,2013-03-21 06:32:00,
2013-03-21 00:42:00,24.0,10.0,-100.00,East,85,30.0,35.0,54,-99.99,,,-99.99,,2013-03-21 06:42:00,
2013-03-21 00:52:00,24.0,9.0,-100.00,East,95,25.0,30.0,54,-99.99,,,-99.99,,2013-03-21 06:52:00,
2013-03-21 01:02:00,24.0,9.0,-100.00,East,95,25.0,30.0,54,-99.99,,,-99.99,,2013-03-21 07:02:00,
2013-03-21 01:12:00,23.0,9.0,-100.00,East,95,31.0,35.0,54,-99.99,,,-99.99,,2013-03-21 07:12:00,
2013-03-21 01:22:00,23.0,9.0,-100.00,East,95,31.0,35.0,54,-99.99,,,-99.99,,2013-03-21 07:22:00,
2013-03-21 01:32:00,23.0,9.0,-100.00,East,95,29.0,34.0,54,-99.99,,,-99.99,,2013-03-21 07:32:00,
2013-03-21 01:42:00,23.0,9.0,-100.00,East,95,29.0,34.0,54,-99.99,,,-99.99,,2013-03-21 07:42:00,
2013-03-21 01:52:00,23.0,9.0,-100.00,East,95,37.0,43.0,54,-99.99,,,-99.99,,2013-03-21 07:52:00,
2013-03-21 02:02:00,23.0,9.0,-100.00,East,95,37.0,43.0,54,-99.99,,,-99.99,,2013-03-21 08:02:00,
2013-03-21 02:13:00,22.0,8.0,-100.00,East,95,39.0,43.0,53,-99.99,,,-99.99,,2013-03-21 08:13:00,
2013-03-21 02:23:00,22.0,8.0,-100.00,East,95,39.0,43.0,53,-99.99,,,-99.99,,2013-03-21 08:23:00,
2013-03-21 02:33:00,22.0,8.0,-100.00,East,90,37.0,42.0,53,-99.99,,,-99.99,,2013-03-21 08:33:00,
2013-03-21 02:42:00,22.0,8.0,-100.00,East,90,37.0,42.0,53,-99.99,,,-99.99,,2013-03-21 08:42:00,
2013-03-21 02:52:00,22.0,7.0,-100.00,East,90,31.0,44.0,52,-99.99,,,-99.99,,2013-03-21 08:52:00,
2013-03-21 03:02:00,22.0,7.0,-100.00,East,90,31.0,44.0,52,-99.99,,,-99.99,,2013-03-21 09:02:00,
2013-03-21 03:11:00,22.0,7.0,-100.00,East,90,37.0,46.0,52,-99.99,,,-99.99,,2013-03-21 09:11:00,
2013-03-21 03:21:00,22.0,7.0,-100.00,East,90,37.0,46.0,52,-99.99,,,-99.99,,2013-03-21 09:21:00,
2013-03-21 03:33:00,22.0,7.0,-100.00,East,85,32.0,37.0,52,-99.99,,,-99.99,,2013-03-21 09:33:00,
2013-03-21 03:43:00,22.0,7.0,-100.00,East,85,32.0,37.0,52,-99.99,,,-99.99,,2013-03-21 09:43:00,
2013-03-21 03:53:00,22.0,7.0,-100.00,East,90,37.0,40.0,52,-99.99,,,-99.99,,2013-03-21 09:53:00,
2013-03-21 04:03:00,22.0,7.0,-100.00,East,90,37.0,40.0,52,-99.99,,,-99.99,,2013-03-21 10:03:00,
2013-03-21 04:12:00,21.0,6.0,-100.00,East,95,35.0,42.0,52,-99.99,,,-99.99,,2013-03-21 10:12:00,
2013-03-21 04:23:00,21.0,6.0,-100.00,East,95,35.0,42.0,52,-99.99,,,-99.99,,2013-03-21 10:23:00,
2013-03-21 04:33:00,21.0,7.0,-100.00,East,90,34.0,42.0,53,-99.99,,,-99.99,,2013-03-21 10:33:00,
2013-03-21 04:42:00,21.0,7.0,-100.00,East,90,34.0,42.0,53,-99.99,,,-99.99,,2013-03-21 10:42:00,
2013-03-21 04:53:00,21.0,6.0,-100.00,East,100,28.0,37.0,53,-99.99,,,-99.99,,2013-03-21 10:53:00,
2013-03-21 05:03:00,21.0,6.0,-100.00,East,100,28.0,37.0,53,-99.99,,,-99.99,,2013-03-21 11:03:00,
2013-03-21 05:12:00,20.0,6.0,-100.00,ESE,105,23.0,28.0,53,-99.99,,,-99.99,,2013-03-21 11:12:00,
2013-03-21 05:22:00,20.0,6.0,-100.00,ESE,105,23.0,28.0,53,-99.99,,,-99.99,,2013-03-21 11:22:00,
2013-03-21 05:33:00,20.0,6.0,-100.00,East,85,24.0,30.0,52,-99.99,,,-99.99,,2013-03-21 11:33:00,
2013-03-21 05:43:00,20.0,6.0,-100.00,East,85,24.0,30.0,52,-99.99,,,-99.99,,2013-03-21 11:43:00,
2013-03-21 05:52:00,20.0,5.0,-100.00,East,100,26.0,32.0,52,-99.99,,,-99.99,,2013-03-21 11:52:00,
2013-03-21 06:02:00,20.0,5.0,-100.00,East,100,26.0,32.0,52,-99.99,,,-99.99,,2013-03-21 12:02:00,
2013-03-21 06:12:00,19.0,5.0,-100.00,East,95,28.0,32.0,54,-99.99,,,-99.99,,2013-03-21 12:12:00,
2013-03-21 06:22:00,19.0,5.0,-100.00,East,95,28.0,32.0,54,-99.99,,,-99.99,,2013-03-21 12:22:00,
2013-03-21 06:33:00,19.0,5.0,-100.00,East,95,29.0,37.0,53,-99.99,,,0.00,,2013-03-21 12:33:00,
2013-03-21 06:42:00,19.0,5.0,-100.00,East,95,29.0,37.0,53,-99.99,,,0.00,,2013-03-21 12:42:00,
2013-03-21 06:52:00,18.0,4.0,-100.00,East,90,29.0,36.0,54,-99.99,,,0.00,,2013-03-21 12:52:00,
2013-03-21 07:02:00,18.0,4.0,-100.00,East,90,29.0,36.0,54,-99.99,,,0.00,,2013-03-21 13:02:00,
2013-03-21 07:12:00,18.0,4.0,-100.00,East,95,31.0,36.0,54,-99.99,,,0.00,,2013-03-21 13:12:00,
2013-03-21 07:22:00,18.0,4.0,-100.00,East,95,31.0,36.0,54,-99.99,,,0.00,,2013-03-21 13:22:00,
2013-03-21 07:32:00,18.0,4.0,-100.00,East,90,28.0,31.0,54,-99.99,,,0.00,,2013-03-21 13:32:00,
2013-03-21 07:42:00,18.0,4.0,-100.00,East,90,28.0,31.0,54,-99.99,,,0.00,,2013-03-21 13:42:00,
2013-03-21 07:52:00,18.0,4.0,-100.00,SE,130,15.0,18.0,53,-99.99,,,0.00,,2013-03-21 13:52:00,
2013-03-21 08:02:00,18.0,4.0,-100.00,SE,130,15.0,18.0,53,-99.99,,,0.00,,2013-03-21 14:02:00,
2013-03-21 08:12:00,18.0,3.0,-100.00,ESE,110,19.0,20.0,52,-99.99,,,0.00,,2013-03-21 14:12:00,
2013-03-21 08:22:00,18.0,3.0,-100.00,ESE,110,19.0,20.0,52,-99.99,,,0.00,,2013-03-21 14:22:00,
2013-03-21 08:32:00,18.0,3.0,-100.00,East,95,27.0,29.0,53,-99.99,,,0.00,,2013-03-21 14:32:00,
2013-03-21 08:42:00,18.0,3.0,-100.00,East,95,27.0,29.0,53,-99.99,,,0.00,,2013-03-21 14:42:00,
2013-03-21 08:52:00,18.0,4.0,-100.00,ESE,110,20.0,25.0,53,-99.99,,,0.00,,2013-03-21 14:52:00,
2013-03-21 09:03:00,18.0,4.0,-100.00,ESE,110,20.0,25.0,53,-99.99,,,0.00,,2013-03-21 15:03:00,
2013-03-21 09:12:00,18.0,4.0,-100.00,ESE,110,21.0,26.0,53,-99.99,,,0.00,,2013-03-21 15:12:00,
2013-03-21 09:22:00,18.0,4.0,-100.00,ESE,110,21.0,26.0,53,-99.99,,,0.00,,2013-03-21 15:22:00,
2013-03-21 09:33:00,18.0,4.0,-100.00,ESE,110,22.0,24.0,53,-99.99,,,0.00,,2013-03-21 15:33:00,
2013-03-21 09:42:00,18.0,4.0,-100.00,ESE,110,22.0,24.0,53,-99.99,,,0.00,,2013-03-21 15:42:00,
2013-03-21 09:53:00,18.0,4.0,-100.00,ESE,110,16.0,24.0,53,-99.99,,,0.00,,2013-03-21 15:53:00,
2013-03-21 10:03:00,18.0,4.0,-100.00,ESE,110,16.0,24.0,53,-99.99,,,0.00,,2013-03-21 16:03:00,
2013-03-21 10:12:00,19.0,4.0,-100.00,East,100,19.0,23.0,52,-99.99,,,0.00,,2013-03-21 16:12:00,
2013-03-21 10:23:00,19.0,4.0,-100.00,East,100,19.0,23.0,52,-99.99,,,0.00,,2013-03-21 16:23:00,
2013-03-21 10:33:00,19.0,4.0,-100.00,ESE,120,21.0,27.0,52,-99.99,,,0.00,,2013-03-21 16:33:00,
2013-03-21 10:42:00,19.0,4.0,-100.00,ESE,120,21.0,27.0,52,-99.99,,,0.00,,2013-03-21 16:42:00,
2013-03-21 10:52:00,19.0,4.0,-100.00,ESE,115,22.0,26.0,52,-99.99,,,0.00,,2013-03-21 16:52:00,
2013-03-21 11:02:00,19.0,4.0,-100.00,ESE,115,22.0,26.0,52,-99.99,,,0.00,,2013-03-21 17:02:00,
2013-03-21 11:12:00,20.0,6.0,-100.00,ESE,110,19.0,22.0,52,-99.99,,,0.00,,2013-03-21 17:12:00,
2013-03-21 11:23:00,20.0,6.0,-100.00,ESE,110,19.0,22.0,52,-99.99,,,0.00,,2013-03-21 17:23:00,
2013-03-21 11:33:00,21.0,5.0,-100.00,ESE,105,21.0,25.0,51,-99.99,,,0.00,,2013-03-21 17:33:00,
2013-03-21 11:42:00,21.0,5.0,-100.00,ESE,105,21.0,25.0,51,-99.99,,,0.00,,2013-03-21 17:42:00,
2013-03-21 11:52:00,22.0,7.0,-100.00,ESE,105,21.0,26.0,51,-99.99,,,0.00,,2013-03-21 17:52:00,
2013-03-21 12:02:00,22.0,7.0,-100.00,ESE,105,21.0,26.0,51,-99.99,,,0.00,,2013-03-21 18:02:00,
2013-03-21 12:12:00,22.0,6.0,-100.00,ESE,110,20.0,24.0,49,-99.99,,,0.00,,2013-03-21 18:12:00,
2013-03-21 12:23:00,22.0,6.0,-100.00,ESE,110,20.0,24.0,49,-99.99,,,0.00,,2013-03-21 18:23:00,
2013-03-21 12:32:00,22.0,6.0,-100.00,East,90,21.0,24.0,50,-99.99,,,0.00,,2013-03-21 18:32:00,
2013-03-21 12:42:00,22.0,6.0,-100.00,East,90,21.0,24.0,50,-99.99,,,0.00,,2013-03-21 18:42:00,
2013-03-21 12:52:00,23.0,7.0,-100.00,ESE,110,17.0,21.0,50,-99.99,,,0.00,,2013-03-21 18:52:00,
2013-03-21 13:02:00,23.0,7.0,-100.00,ESE,110,17.0,21.0,50,-99.99,,,0.00,,2013-03-21 19:02:00,
2013-03-21 13:12:00,23.0,7.0,-100.00,ESE,110,16.0,21.0,50,-99.99,,,0.00,,2013-03-21 19:12:00,
2013-03-21 13:22:00,23.0,7.0,-100.00,ESE,110,16.0,21.0,50,-99.99,,,0.00,,2013-03-21 19:22:00,
2013-03-21 13:32:00,24.0,8.0,-100.00,ESE,110,15.0,17.0,50,-99.99,,,0.00,,2013-03-21 19:32:00,
2013-03-21 13:42:00,24.0,8.0,-100.00,ESE,110,15.0,17.0,50,-99.99,,,0.00,,2013-03-21 19:42:00,
2013-03-21 13:52:00,24.0,8.0,-100.00,ESE,115,14.0,17.0,50,-99.99,,,0.00,,2013-03-21 19:52:00,
2013-03-21 14:02:00,24.0,8.0,-100.00,ESE,115,14.0,17.0,50,-99.99,,,0.00,,2013-03-21 20:02:00,
2013-03-21 14:12:00,25.0,9.0,-100.00,SE,125,16.0,19.0,50,-99.99,,,0.00,,2013-03-21 20:12:00,
2013-03-21 14:22:00,25.0,9.0,-100.00,SE,125,16.0,19.0,50,-99.99,,,0.00,,2013-03-21 20:22:00,
2013-03-21 14:33:00,25.0,9.0,-100.00,SE,125,16.0,19.0,50,-99.99,,,0.00,,2013-03-21 20:33:00,
2013-03-21 14:42:00,25.0,9.0,-100.00,SE,125,16.0,19.0,50,-99.99,,,0.00,,2013-03-21 20:42:00,
2013-03-21 14:53:00,25.0,9.0,-100.00,ESE,120,14.0,17.0,50,-99.99,,,0.00,,2013-03-21 20:53:00,
2013-03-21 15:02:00,25.0,9.0,-100.00,ESE,120,14.0,17.0,50,-99.99,,,0.00,,2013-03-21 21:02:00,
2013-03-21 15:12:00,25.0,10.0,-100.00,ESE,105,13.0,15.0,52,-99.99,,,0.00,,2013-03-21 21:12:00,
2013-03-21 15:22:00,25.0,10.0,-100.00,ESE,105,13.0,15.0,52,-99.99,,,0.00,,2013-03-21 21:22:00,
2013-03-21 15:33:00,25.0,10.0,-100.00,ESE,105,13.0,15.0,52,-99.99,,,0.00,,2013-03-21 21:33:00,
2013-03-21 15:43:00,25.0,10.0,-100.00,ESE,105,13.0,15.0,52,-99.99,,,0.00,,2013-03-21 21:43:00,
2013-03-21 15:53:00,24.0,10.0,-100.00,ESE,105,14.0,17.0,54,-99.99,,,0.00,,2013-03-21 21:53:00,
2013-03-21 16:03:00,24.0,10.0,-100.00,ESE,105,14.0,17.0,54,-99.99,,,0.00,,2013-03-21 22:03:00,
2013-03-21 16:13:00,24.0,10.0,-100.00,East,90,13.0,14.0,56,-99.99,,,0.00,,2013-03-21 22:13:00,
2013-03-21 16:23:00,24.0,10.0,-100.00,East,90,13.0,14.0,56,-99.99,,,0.00,,2013-03-21 22:23:00,
2013-03-21 16:33:00,23.0,11.0,-100.00,East,100,11.0,14.0,59,-99.99,,,0.00,,2013-03-21 22:33:00,
2013-03-21 16:42:00,23.0,11.0,-100.00,East,100,11.0,14.0,59,-99.99,,,0.00,,2013-03-21 22:42:00,
2013-03-21 16:52:00,23.0,12.0,-100.00,East,100,14.0,16.0,63,-99.99,,,0.00,,2013-03-21 22:52:00,
2013-03-21 17:02:00,23.0,12.0,-100.00,East,100,14.0,16.0,63,-99.99,,,0.00,,2013-03-21 23:02:00,
2013-03-21 17:12:00,23.0,16.0,-100.00,ESE,110,11.0,14.0,73,-99.99,,,0.00,,2013-03-21 23:12:00,
2013-03-21 17:22:00,23.0,16.0,-100.00,ESE,110,11.0,14.0,73,-99.99,,,0.00,,2013-03-21 23:22:00,
2013-03-21 17:32:00,24.0,17.0,-100.00,ESE,110,9.0,12.0,76,-99.99,,,0.00,,2013-03-21 23:32:00,
2013-03-21 17:42:00,24.0,17.0,-100.00,ESE,110,9.0,12.0,76,-99.99,,,0.00,,2013-03-21 23:42:00,
2013-03-21 17:52:00,23.0,18.0,-100.00,ESE,110,12.0,14.0,79,-99.99,,,0.00,,2013-03-21 23:52:00,
2013-03-21 18:02:00,23.0,18.0,-100.00,ESE,110,12.0,14.0,79,-99.99,,,0.00,,2013-03-22 00:02:00,
2013-03-21 18:12:00,24.0,19.0,-100.00,East,100,11.0,12.0,82,-99.99,,,0.00,,2013-03-22 00:12:00,
2013-03-21 18:22:00,24.0,19.0,-100.00,East,100,11.0,12.0,82,-99.99,,,0.00,,2013-03-22 00:22:00,
2013-03-21 18:32:00,24.0,19.0,-100.00,East,100,11.0,12.0,82,-99.99,,,0.00,,2013-03-22 00:32:00,
2013-03-21 18:42:00,24.0,19.0,-100.00,East,100,11.0,12.0,82,-99.99,,,0.00,,2013-03-22 00:42:00,
2013-03-21 18:52:00,24.0,19.0,-100.00,East,95,10.0,12.0,81,-99.99,,,0.00,,2013-03-22 00:52:00,
2013-03-21 19:02:00,24.0,19.0,-100.00,East,95,10.0,12.0,81,-99.99,,,0.00,,2013-03-22 01:02:00,
2013-03-21 19:12:00,24.0,20.0,-100.00,East,100,9.0,10.0,85,-99.99,,,0.00,,2013-03-22 01:12:00,
2013-03-21 19:22:00,24.0,20.0,-100.00,East,100,9.0,10.0,85,-99.99,,,0.00,,2013-03-22 01:22:00,
2013-03-21 19:32:00,23.0,20.0,-100.00,ESE,110,9.0,11.0,86,-99.99,,,0.00,,2013-03-22 01:32:00,
2013-03-21 19:43:00,23.0,20.0,-100.00,ESE,110,9.0,11.0,86,-99.99,,,0.00,,2013-03-22 01:43:00,
2013-03-21 19:52:00,23.0,19.0,-100.00,East,95,10.0,11.0,87,-99.99,,,0.00,,2013-03-22 01:52:00,
2013-03-21 20:02:00,23.0,19.0,-100.00,East,95,10.0,11.0,87,-99.99,,,0.00,,2013-03-22 02:02:00,
2013-03-21 20:12:00,22.0,20.0,-100.00,East,100,8.0,9.0,89,-99.99,,,0.00,,2013-03-22 02:12:00,
2013-03-21 20:22:00,22.0,20.0,-100.00,East,100,8.0,9.0,89,-99.99,,,0.00,,2013-03-22 02:22:00,
2013-03-21 20:32:00,22.0,20.0,-100.00,East,100,9.0,11.0,90,-99.99,,,0.00,,2013-03-22 02:32:00,
2013-03-21 20:43:00,22.0,20.0,-100.00,East,100,9.0,11.0,90,-99.99,,,0.00,,2013-03-22 02:43:00,
2013-03-21 20:53:00,22.0,20.0,-100.00,East,95,11.0,12.0,90,-99.99,,,0.00,,2013-03-22 02:53:00,
2013-03-21 21:01:00,23.0,20.0,-100.00,East,100,11.0,12.0,91,-99.99,,,0.00,,2013-03-22 03:01:00,
2013-03-21 21:02:00,22.0,20.0,-100.00,East,95,11.0,12.0,90,-99.99,,,0.00,,2013-03-22 03:02:00,
2013-03-21 21:12:00,23.0,20.0,-100.00,East,90,9.0,11.0,91,-99.99,,,0.00,,2013-03-22 03:12:00,
2013-03-21 21:22:00,23.0,20.0,-100.00,East,90,9.0,11.0,91,-99.99,,,0.00,,2013-03-22 03:22:00,
2013-03-21 21:33:00,23.0,20.0,-100.00,East,100,11.0,12.0,91,-99.99,,,0.00,,2013-03-22 03:33:00,
2013-03-21 21:43:00,23.0,20.0,-100.00,East,100,11.0,12.0,91,-99.99,,,0.00,,2013-03-22 03:43:00,
2013-03-21 21:52:00,23.0,20.0,-100.00,East,100,11.0,12.0,91,-99.99,,,0.00,,2013-03-22 03:52:00,
2013-03-21 22:12:00,23.0,21.0,-100.00,East,95,16.0,19.0,91,-99.99,,,0.00,,2013-03-22 04:12:00,
2013-03-21 22:23:00,23.0,21.0,-100.00,East,95,16.0,19.0,91,-99.99,,,0.00,,2013-03-22 04:23:00,
2013-03-21 22:32:00,23.0,21.0,-100.00,ESE,105,14.0,16.0,91,-99.99,,,0.01,,2013-03-22 04:32:00,
2013-03-21 22:43:00,23.0,21.0,-100.00,ESE,105,14.0,16.0,91,-99.99,,,0.01,,2013-03-22 04:43:00,
2013-03-21 22:52:00,23.0,21.0,-100.00,ESE,115,12.0,14.0,91,-99.99,,,0.01,,2013-03-22 04:52:00,
2013-03-21 23:02:00,23.0,21.0,-100.00,ESE,115,12.0,14.0,91,-99.99,,,0.01,,2013-03-22 05:02:00,
2013-03-21 23:12:00,23.0,21.0,-100.00,ESE,110,9.0,11.0,91,-99.99,,,0.01,,2013-03-22 05:12:00,
2013-03-21 23:22:00,23.0,21.0,-100.00,ESE,110,9.0,11.0,91,-99.99,,,0.01,,2013-03-22 05:22:00,
2013-03-21 23:32:00,23.0,21.0,-100.00,ESE,120,11.0,12.0,91,-99.99,,,0.01,,2013-03-22 05:32:00,
2013-03-21 23:42:00,23.0,21.0,-100.00,ESE,120,11.0,12.0,91,-99.99,,,0.01,,2013-03-22 05:42:00,
2013-03-21 23:52:00,23.0,21.0,-100.00,SE,125,11.0,12.0,91,-99.99,,,0.01,,2013-03-22 05:52:00,